Location: S�tio Afonso Gruber
(26.1760°S, 49.5250°W)
Time: 21:47:05
(UTC+00:00)

Cosmos 2016 Rocket - Pass Details

Date: 04 October 2020
Orbit: 946 x 1001 km, 83.0° (Epoch: 27 October)

Event Time Altitude Azimuth Distance (km) Brightness Sun altitude
Rises 08:23:17 0° 324° (NW) 3,637 6.6 -7.7°
Reaches altitude 10° 08:26:16 10° 310° (NW) 2,708 5.8 -7.0°
Maximum altitude 08:31:08 24° 258° (WSW) 1,913 5.0 -5.9°
Drops below altitude 10° 08:36:07 10° 206° (SSW) 2,761 6.2 -4.8°
Sets 08:39:13 0° 192° (SSW) 3,726 7.0 -4.1°
